Погода в Оймяконе

Россия / Республика Саха (Якутия)     63°27′52″N   142°47′20″E
темп.,
°C
ветер,
м/с
пор.,
м/с
влажн.,
%
обл.,
%
осадки,
мм/ч
давл.,
гПа
погр.,
м
3 марта, ср
ср301:00−30зсз1199100 0.2 101819
04:00−30юз11100100 0.4 101719
07:00−31сз00100100 0.1 101619
10:00−29зюз1196100 0.3 1014119
13:00−28зюз1087100 0.1 1011260
16:00−26з1191100 0.1 1010200
19:00−31з11100100 0.0 101119
22:00−31зсз01100100 0.1 101019
4 марта, чт
чт401:00−31зсз01100100 0.1 101019
04:00−32сз11100100 0.1 101019
07:00−33ссз1298100 0.1 101019
10:00−31ссз2292100 0.1 1010118
13:00−29сз4583100 0.0 1008706
16:00−29сз4682100 0.0 1008691
19:00−32сз3386100 0.0 101040
22:00−33сз2388100 0.0 101124
5 марта, пт
пт501:00−34зсз2292100 0.0 101121
04:00−35зсз2294100 0.0 101225
07:00−37сз2292100 0.0 101319
10:00−35сз2382100 0.0 1013236
13:00−33зсз3376100 0.0 1011516
16:00−32сз2378100 0.0 1011460
19:00−35с2283100 0.0 101321
22:00−36с1282100 0.0 101419
6 марта, сб
сб601:00−35сз1295100 0.0 101624
04:00−35сз2297100 0.1 101721
07:00−35сз2298100 0.1 101927
10:00−34зсз2291100 0.1 1018269
13:00−32зсз2385100 0.0 1016476
16:00−30зсз2382100 0.0 1016513
19:00−33ссз2290100 0.0 101720
22:00−33ссз2287100 0.0 101819
7 марта, вс
вс701:00−34сз1188100 0.0 101719
04:00−35зсз1187100 0.0 101719
07:00−37сз128778 0.0 101719
10:00−33зсз128039 0.0 1016132
13:00−30зсз23817 0.0 1014336
16:00−28сз128542 0.0 1014273
19:00−33ссв1289100 0.0 101819
22:00−36с119064 0.0 102019